Time,TemperatureF,DewpointF,PressureIn,WindDirection,WindDirectionDegrees,WindSpeedMPH,WindSpeedGustMPH,Humidity,HourlyPrecipIn,Conditions,Clouds,dailyrainin,SoftwareType,DateUTC
2013-04-01 00:02:00,34.0,28.0,-100.00,SSW,192,2.0,6.0,80,-99.99,,,-99.99,,2013-04-01 07:02:00,
2013-04-01 00:12:00,34.0,28.0,-100.00,SSW,192,2.0,6.0,80,-99.99,,,-99.99,,2013-04-01 07:12:00,
2013-04-01 00:22:00,34.0,28.0,-100.00,SSW,192,2.0,6.0,80,-99.99,,,-99.99,,2013-04-01 07:22:00,
2013-04-01 00:32:00,35.0,29.0,-100.00,SSW,210,3.0,5.0,80,-99.99,,,-99.99,,2013-04-01 07:32:00,
2013-04-01 00:43:00,35.0,29.0,-100.00,SSW,210,3.0,5.0,80,-99.99,,,-99.99,,2013-04-01 07:43:00,
2013-04-01 00:52:00,35.0,29.0,-100.00,SSW,210,3.0,5.0,80,-99.99,,,-99.99,,2013-04-01 07:52:00,
2013-04-01 01:02:00,33.0,29.0,-100.00,NW,325,1.0,4.0,85,-99.99,,,-99.99,,2013-04-01 08:02:00,
2013-04-01 01:12:00,33.0,29.0,-100.00,NW,325,1.0,4.0,85,-99.99,,,-99.99,,2013-04-01 08:12:00,
2013-04-01 01:22:00,33.0,29.0,-100.00,NW,325,1.0,4.0,85,-99.99,,,-99.99,,2013-04-01 08:22:00,
2013-04-01 01:32:00,36.0,29.0,-100.00,ESE,113,3.0,9.0,76,-99.99,,,-99.99,,2013-04-01 08:32:00,
2013-04-01 01:43:00,36.0,29.0,-100.00,ESE,113,3.0,9.0,76,-99.99,,,-99.99,,2013-04-01 08:43:00,
2013-04-01 01:53:00,36.0,29.0,-100.00,ESE,113,3.0,9.0,76,-99.99,,,-99.99,,2013-04-01 08:53:00,
2013-04-01 02:02:00,33.0,28.0,-100.00,NNW,343,1.0,3.0,83,-99.99,,,-99.99,,2013-04-01 09:02:00,
2013-04-01 02:12:00,33.0,28.0,-100.00,NNW,343,1.0,3.0,83,-99.99,,,-99.99,,2013-04-01 09:12:00,
2013-04-01 02:22:00,33.0,28.0,-100.00,NNW,343,1.0,3.0,83,-99.99,,,-99.99,,2013-04-01 09:22:00,
2013-04-01 02:33:00,35.0,31.0,-100.00,South,171,1.0,3.0,85,-99.99,,,-99.99,,2013-04-01 09:33:00,
2013-04-01 02:43:00,35.0,31.0,-100.00,South,171,1.0,3.0,85,-99.99,,,-99.99,,2013-04-01 09:43:00,
2013-04-01 02:53:00,35.0,31.0,-100.00,South,171,1.0,3.0,85,-99.99,,,-99.99,,2013-04-01 09:53:00,
2013-04-01 03:02:00,35.0,32.0,-100.00,SE,130,3.0,5.0,89,-99.99,,,-99.99,,2013-04-01 10:02:00,
2013-04-01 03:12:00,35.0,32.0,-100.00,SE,130,3.0,5.0,89,-99.99,,,-99.99,,2013-04-01 10:12:00,
2013-04-01 03:23:00,35.0,32.0,-100.00,SE,130,3.0,5.0,89,-99.99,,,-99.99,,2013-04-01 10:23:00,
2013-04-01 03:33:00,34.0,32.0,-100.00,SE,130,3.0,8.0,93,-99.99,,,-99.99,,2013-04-01 10:33:00,
2013-04-01 03:43:00,34.0,32.0,-100.00,SE,130,3.0,8.0,93,-99.99,,,-99.99,,2013-04-01 10:43:00,
2013-04-01 03:53:00,34.0,32.0,-100.00,SE,130,3.0,8.0,93,-99.99,,,-99.99,,2013-04-01 10:53:00,
2013-04-01 04:02:00,35.0,33.0,-100.00,South,179,3.0,10.0,91,-99.99,,,-99.99,,2013-04-01 11:02:00,
2013-04-01 04:12:00,35.0,33.0,-100.00,South,179,3.0,10.0,91,-99.99,,,-99.99,,2013-04-01 11:12:00,
2013-04-01 04:22:00,35.0,33.0,-100.00,South,179,3.0,10.0,91,-99.99,,,-99.99,,2013-04-01 11:22:00,
2013-04-01 04:32:00,35.0,33.0,-100.00,South,179,3.0,10.0,91,-99.99,,,-99.99,,2013-04-01 11:32:00,
2013-04-01 05:02:00,35.0,32.0,-100.00,SSE,148,4.0,10.0,87,-99.99,,,-99.99,,2013-04-01 12:02:00,
2013-04-01 05:12:00,35.0,32.0,-100.00,SSE,148,4.0,10.0,87,-99.99,,,-99.99,,2013-04-01 12:12:00,
2013-04-01 05:22:00,35.0,32.0,-100.00,SSE,148,4.0,10.0,87,-99.99,,,-99.99,,2013-04-01 12:22:00,
2013-04-01 05:32:00,34.0,31.0,-100.00,South,175,3.0,8.0,88,-99.99,,,-99.99,,2013-04-01 12:32:00,
2013-04-01 05:43:00,34.0,31.0,-100.00,South,175,3.0,8.0,88,-99.99,,,-99.99,,2013-04-01 12:43:00,
2013-04-01 05:53:00,34.0,31.0,-100.00,South,175,3.0,8.0,88,-99.99,,,-99.99,,2013-04-01 12:53:00,
2013-04-01 06:02:00,34.0,31.0,-100.00,South,175,3.0,8.0,88,-99.99,,,-99.99,,2013-04-01 13:02:00,
2013-04-01 08:02:00,35.0,30.0,-100.00,SSW,212,4.0,9.0,81,-99.99,,,-99.99,,2013-04-01 15:02:00,
2013-04-01 08:12:00,35.0,30.0,-100.00,SSW,212,4.0,9.0,81,-99.99,,,-99.99,,2013-04-01 15:12:00,
2013-04-01 08:22:00,35.0,31.0,-100.00,SW,222,4.0,7.0,84,-99.99,,,-99.99,,2013-04-01 15:22:00,
2013-04-01 08:33:00,35.0,31.0,-100.00,SW,222,4.0,7.0,84,-99.99,,,-99.99,,2013-04-01 15:33:00,
2013-04-01 08:43:00,35.0,31.0,-100.00,SW,222,4.0,7.0,84,-99.99,,,-99.99,,2013-04-01 15:43:00,
2013-04-01 08:53:00,37.0,30.0,-100.00,South,176,4.0,9.0,76,-99.99,,,-99.99,,2013-04-01 15:53:00,
2013-04-01 09:02:00,37.0,30.0,-100.00,South,176,4.0,9.0,76,-99.99,,,-99.99,,2013-04-01 16:02:00,
2013-04-01 09:12:00,37.0,30.0,-100.00,South,176,4.0,9.0,76,-99.99,,,-99.99,,2013-04-01 16:12:00,
2013-04-01 09:22:00,37.0,30.0,-100.00,South,176,4.0,9.0,76,-99.99,,,-99.99,,2013-04-01 16:22:00,
2013-04-01 13:22:00,42.0,29.0,-100.00,WSW,241,6.0,10.0,59,-99.99,,,-99.99,,2013-04-01 20:22:00,
2013-04-01 13:32:00,42.0,29.0,-100.00,WSW,241,6.0,10.0,59,-99.99,,,-99.99,,2013-04-01 20:32:00,
2013-04-01 13:42:00,42.0,29.0,-100.00,WSW,241,6.0,10.0,59,-99.99,,,-99.99,,2013-04-01 20:42:00,
2013-04-01 13:52:00,42.0,29.0,-100.00,WSW,246,7.0,13.0,60,-99.99,,,-99.99,,2013-04-01 20:52:00,
2013-04-01 14:02:00,42.0,29.0,-100.00,WSW,246,7.0,13.0,60,-99.99,,,-99.99,,2013-04-01 21:02:00,
2013-04-01 14:11:00,42.0,29.0,-100.00,WSW,246,7.0,13.0,60,-99.99,,,-99.99,,2013-04-01 21:11:00,
2013-04-01 14:22:00,42.0,30.0,-100.00,SW,229,6.0,11.0,63,-99.99,,,-99.99,,2013-04-01 21:22:00,
2013-04-01 14:32:00,42.0,30.0,-100.00,SW,229,6.0,11.0,63,-99.99,,,-99.99,,2013-04-01 21:32:00,
2013-04-01 14:43:00,42.0,30.0,-100.00,SW,229,6.0,11.0,63,-99.99,,,-99.99,,2013-04-01 21:43:00,
2013-04-01 14:52:00,43.0,29.0,-100.00,WSW,237,7.0,13.0,58,-99.99,,,-99.99,,2013-04-01 21:52:00,
2013-04-01 15:02:00,43.0,29.0,-100.00,WSW,237,7.0,13.0,58,-99.99,,,-99.99,,2013-04-01 22:02:00,
2013-04-01 15:12:00,43.0,29.0,-100.00,WSW,237,7.0,13.0,58,-99.99,,,-99.99,,2013-04-01 22:12:00,
2013-04-01 15:22:00,43.0,29.0,-100.00,WSW,237,7.0,13.0,58,-99.99,,,-99.99,,2013-04-01 22:22:00,
2013-04-01 15:33:00,43.0,30.0,-100.00,WSW,244,8.0,13.0,60,-99.99,,,-99.99,,2013-04-01 22:33:00,
2013-04-01 15:42:00,43.0,30.0,-100.00,WSW,244,8.0,13.0,60,-99.99,,,-99.99,,2013-04-01 22:42:00,
2013-04-01 15:52:00,43.0,30.0,-100.00,WSW,244,8.0,13.0,60,-99.99,,,-99.99,,2013-04-01 22:52:00,
2013-04-01 17:02:00,44.0,32.0,-100.00,WSW,241,7.0,11.0,62,-99.99,,,-99.99,,2013-04-02 00:02:00,
2013-04-01 17:12:00,44.0,32.0,-100.00,WSW,241,7.0,11.0,62,-99.99,,,-99.99,,2013-04-02 00:12:00,
2013-04-01 17:22:00,44.0,32.0,-100.00,WSW,241,7.0,11.0,62,-99.99,,,-99.99,,2013-04-02 00:22:00,
2013-04-01 17:32:00,43.0,31.0,-100.00,WSW,253,9.0,14.0,63,-99.99,,,-99.99,,2013-04-02 00:32:00,
2013-04-01 17:43:00,43.0,31.0,-100.00,WSW,253,9.0,14.0,63,-99.99,,,-99.99,,2013-04-02 00:43:00,
2013-04-01 17:53:00,43.0,31.0,-100.00,WSW,253,9.0,14.0,63,-99.99,,,-99.99,,2013-04-02 00:53:00,
2013-04-01 18:02:00,43.0,32.0,-100.00,WSW,247,6.0,11.0,64,-99.99,,,-99.99,,2013-04-02 01:02:00,
2013-04-01 18:12:00,43.0,32.0,-100.00,WSW,247,6.0,11.0,64,-99.99,,,-99.99,,2013-04-02 01:12:00,
2013-04-01 18:22:00,43.0,32.0,-100.00,WSW,247,6.0,11.0,64,-99.99,,,-99.99,,2013-04-02 01:22:00,
2013-04-01 18:32:00,42.0,32.0,-100.00,WSW,253,10.0,16.0,68,-99.99,,,-99.99,,2013-04-02 01:32:00,
2013-04-01 18:43:00,42.0,32.0,-100.00,WSW,253,10.0,16.0,68,-99.99,,,-99.99,,2013-04-02 01:43:00,
2013-04-01 18:52:00,42.0,32.0,-100.00,WSW,253,10.0,16.0,68,-99.99,,,-99.99,,2013-04-02 01:52:00,
2013-04-01 19:02:00,41.0,32.0,-100.00,WSW,257,9.0,16.0,71,-99.99,,,-99.99,,2013-04-02 02:02:00,
2013-04-01 19:12:00,41.0,32.0,-100.00,WSW,257,9.0,16.0,71,-99.99,,,-99.99,,2013-04-02 02:12:00,
2013-04-01 19:22:00,41.0,32.0,-100.00,WSW,257,9.0,16.0,71,-99.99,,,-99.99,,2013-04-02 02:22:00,
2013-04-01 19:32:00,41.0,32.0,-100.00,WSW,257,9.0,16.0,71,-99.99,,,-99.99,,2013-04-02 02:32:00,
2013-04-01 21:02:00,39.0,32.0,-100.00,West,264,3.0,6.0,75,-99.99,,,-99.99,,2013-04-02 04:02:00,
2013-04-01 21:13:00,39.0,32.0,-100.00,West,264,3.0,6.0,75,-99.99,,,-99.99,,2013-04-02 04:13:00,
2013-04-01 21:22:00,39.0,32.0,-100.00,West,264,3.0,6.0,75,-99.99,,,-99.99,,2013-04-02 04:22:00,
2013-04-01 21:32:00,39.0,32.0,-100.00,NW,318,2.0,7.0,77,-99.99,,,-99.99,,2013-04-02 04:32:00,
2013-04-01 21:43:00,39.0,32.0,-100.00,NW,318,2.0,7.0,77,-99.99,,,-99.99,,2013-04-02 04:43:00,
2013-04-01 21:53:00,39.0,32.0,-100.00,NW,318,2.0,7.0,77,-99.99,,,-99.99,,2013-04-02 04:53:00,
2013-04-01 22:02:00,37.0,32.0,-100.00,NE,49,2.0,3.0,81,-99.99,,,-99.99,,2013-04-02 05:02:00,
2013-04-01 22:12:00,37.0,32.0,-100.00,NE,49,2.0,3.0,81,-99.99,,,-99.99,,2013-04-02 05:12:00,
2013-04-01 22:22:00,37.0,32.0,-100.00,NE,49,2.0,3.0,81,-99.99,,,-99.99,,2013-04-02 05:22:00,
2013-04-01 22:32:00,37.0,32.0,-100.00,NE,49,2.0,3.0,81,-99.99,,,-99.99,,2013-04-02 05:32:00,
2013-04-01 23:02:00,34.0,31.0,-100.00,NE,40,3.0,5.0,87,-99.99,,,-99.99,,2013-04-02 06:02:00,
2013-04-01 23:12:00,34.0,31.0,-100.00,NE,40,3.0,5.0,87,-99.99,,,-99.99,,2013-04-02 06:12:00,
2013-04-01 23:22:00,34.0,31.0,-100.00,NE,40,3.0,5.0,87,-99.99,,,-99.99,,2013-04-02 06:22:00,
2013-04-01 23:32:00,32.0,29.0,-100.00,North,11,2.0,5.0,89,-99.99,,,-99.99,,2013-04-02 06:32:00,
2013-04-01 23:42:00,32.0,29.0,-100.00,North,11,2.0,5.0,89,-99.99,,,-99.99,,2013-04-02 06:42:00,
2013-04-01 23:52:00,32.0,29.0,-100.00,North,11,2.0,5.0,89,-99.99,,,-99.99,,2013-04-02 06:52:00,